When you browse on this site, cookies collect data to enhance your experience and personalize the content and advertising you see.
Visit our Privacy Policy to learn more. By continuing to use the site, you agree to this use of cookies and data.
  • en France
  • Liste des pays
  • À 7 jours
  • Température de l'eau
  • Carte météo
  • Widgets météo
  • user-avatar
    Se connecter

    Météo par heure à Dinajpur

    Ce jour, 7 Décembre, Samedi

    Heure Température Précipitation Vent Pression Humidité
    00:00 +20°C° 0 mm 2 m/s 761 mmHg 62%
    01:00 +19°C° 0 mm 2 m/s 761 mmHg 63%
    02:00 +19°C° 0 mm 2 m/s 761 mmHg 64%
    03:00 +18°C° 0 mm 2 m/s 760 mmHg 65%
    04:00 +18°C° 0 mm 2 m/s 761 mmHg 65%
    05:00 +17°C° 0 mm 2 m/s 761 mmHg 65%
    06:00 +17°C° 0 mm 3 m/s 761 mmHg 65%
    07:00 +18°C° 0 mm 3 m/s 761 mmHg 61%
    08:00 +19°C° 0 mm 3 m/s 762 mmHg 57%
    09:00 +21°C° 0 mm 3 m/s 762 mmHg 52%
    10:00 +22°C° 0 mm 3 m/s 762 mmHg 48%
    11:00 +25°C° 0 mm 3 m/s 761 mmHg 45%
    12:00 +27°C° 0 mm 3 m/s 761 mmHg 41%
    13:00 +27°C° 0 mm 3 m/s 760 mmHg 38%
    14:00 +28°C° 0 mm 2 m/s 760 mmHg 35%
    15:00 +28°C° 0 mm 2 m/s 759 mmHg 33%
    16:00 +27°C° 0 mm 2 m/s 759 mmHg 36%
    17:00 +25°C° 0 mm 1 m/s 759 mmHg 39%
    18:00 +24°C° 0 mm 1 m/s 759 mmHg 43%
    19:00 +23°C° 0 mm 1 m/s 760 mmHg 45%
    20:00 +23°C° 0 mm 1 m/s 760 mmHg 46%
    21:00 +22°C° 0 mm 1 m/s 761 mmHg 48%
    22:00 +22°C° 0 mm 1 m/s 761 mmHg 50%
    23:00 +21°C° 0 mm 1 m/s 760 mmHg 52%

    Demain, 8 Décembre, Dimanche

    Heure Température Précipitation Vent Pression Humidité
    00:00 +21°C° 0 mm 1 m/s 760 mmHg 54%
    01:00 +20°C° 0 mm 1 m/s 760 mmHg 53%
    02:00 +19°C° 0 mm 2 m/s 760 mmHg 52%
    03:00 +18°C° 0 mm 2 m/s 759 mmHg 51%
    04:00 +18°C° 0 mm 2 m/s 760 mmHg 52%
    05:00 +17°C° 0 mm 2 m/s 760 mmHg 52%
    06:00 +17°C° 0 mm 2 m/s 760 mmHg 53%
    07:00 +18°C° 0 mm 2 m/s 761 mmHg 50%
    08:00 +20°C° 0 mm 2 m/s 761 mmHg 48%
    09:00 +21°C° 0 mm 2 m/s 762 mmHg 46%
    10:00 +24°C° 0 mm 2 m/s 762 mmHg 41%
    11:00 +25°C° 0 mm 2 m/s 761 mmHg 36%
    12:00 +27°C° 0 mm 2 m/s 761 mmHg 31%
    13:00 +27°C° 0 mm 2 m/s 760 mmHg 30%
    14:00 +28°C° 0 mm 2 m/s 759 mmHg 29%
    15:00 +28°C° 0 mm 1 m/s 759 mmHg 27%
    16:00 +27°C° 0 mm 1 m/s 759 mmHg 31%
    17:00 +25°C° 0 mm 1 m/s 759 mmHg 34%
    18:00 +23°C° 0 mm 1 m/s 759 mmHg 37%
    19:00 +23°C° 0 mm 1 m/s 759 mmHg 38%
    20:00 +22°C° 0 mm 1 m/s 760 mmHg 39%
    21:00 +22°C° 0 mm 1 m/s 760 mmHg 40%
    22:00 +22°C° 0 mm 1 m/s 760 mmHg 41%
    23:00 +21°C° 0 mm 1 m/s 760 mmHg 42%

    Après-demain, 9 Décembre, Lundi

    Heure Température Précipitation Vent Pression Humidité
    00:00 +21°C° 0 mm 1 m/s 760 mmHg 43%
    01:00 +20°C° 0 mm 1 m/s 760 mmHg 45%
    02:00 +19°C° 0 mm 2 m/s 759 mmHg 48%
    03:00 +18°C° 0 mm 2 m/s 759 mmHg 50%
    04:00 +18°C° 0 mm 2 m/s 759 mmHg 52%
    05:00 +18°C° 0 mm 1 m/s 760 mmHg 54%
    06:00 +18°C° 0 mm 1 m/s 760 mmHg 56%
    07:00 +19°C° 0 mm 1 m/s 760 mmHg 53%
    08:00 +21°C° 0 mm 1 m/s 761 mmHg 50%
    09:00 +22°C° 0 mm 1 m/s 762 mmHg 46%
    10:00 +24°C° 0 mm 1 m/s 761 mmHg 42%
    11:00 +25°C° 0 mm 1 m/s 761 mmHg 38%
    12:00 +27°C° 0 mm 1 m/s 760 mmHg 35%
    13:00 +27°C° 0 mm 2 m/s 760 mmHg 33%
    14:00 +27°C° 0 mm 2 m/s 759 mmHg 32%
    15:00 +28°C° 0 mm 2 m/s 758 mmHg 30%
    16:00 +26°C° 0 mm 2 m/s 758 mmHg 34%
    17:00 +25°C° 0 mm 1 m/s 758 mmHg 37%
    18:00 +23°C° 0 mm 1 m/s 758 mmHg 41%
    19:00 +23°C° 0 mm 1 m/s 758 mmHg 42%
    20:00 +22°C° 0 mm 1 m/s 759 mmHg 43%
    21:00 +22°C° 0 mm 1 m/s 759 mmHg 44%
    22:00 +22°C° 0 mm 1 m/s 759 mmHg 45%
    23:00 +21°C° 0 mm 1 m/s 759 mmHg 46%

    10 Décembre, Mardi

    Heure Température Précipitation Vent Pression Humidité
    00:00 +21°C° 0 mm 1 m/s 759 mmHg 47%
    01:00 +20°C° 0 mm 1 m/s 758 mmHg 49%
    02:00 +20°C° 0 mm 1 m/s 758 mmHg 51%
    03:00 +17°C° 0 mm 0 m/s 758 mmHg 53%
    04:00 +17°C° 0 mm 0 m/s 758 mmHg 54%
    05:00 +16°C° 0 mm 0 m/s 758 mmHg 55%
    06:00 +16°C° 0 mm 0 m/s 758 mmHg 56%
    07:00 +18°C° 0 mm 0 m/s 759 mmHg 52%
    08:00 +19°C° 0 mm 0 m/s 759 mmHg 49%
    09:00 +22°C° 0 mm 1 m/s 760 mmHg 46%
    10:00 +24°C° 0 mm 1 m/s 759 mmHg 42%
    11:00 +25°C° 0 mm 1 m/s 759 mmHg 39%
    12:00 +27°C° 0 mm 1 m/s 759 mmHg 35%
    13:00 +27°C° 0 mm 1 m/s 758 mmHg 34%
    14:00 +28°C° 0 mm 1 m/s 757 mmHg 32%
    15:00 +28°C° 0 mm 2 m/s 756 mmHg 31%
    16:00 +26°C° 0 mm 2 m/s 756 mmHg 34%
    17:00 +25°C° 0 mm 1 m/s 756 mmHg 37%
    18:00 +24°C° 0 mm 1 m/s 756 mmHg 40%
    19:00 +23°C° 0 mm 1 m/s 757 mmHg 42%
    20:00 +22°C° 0 mm 1 m/s 757 mmHg 43%
    21:00 +22°C° 0 mm 1 m/s 757 mmHg 45%
    22:00 +21°C° 0 mm 1 m/s 757 mmHg 47%
    23:00 +21°C° 0 mm 1 m/s 757 mmHg 49%

    11 Décembre, Mercredi

    Heure Température Précipitation Vent Pression Humidité
    00:00 +20°C° 0 mm 1 m/s 757 mmHg 51%
    01:00 +20°C° 0 mm 1 m/s 757 mmHg 52%
    02:00 +18°C° 0 mm 0 m/s 757 mmHg 53%
    03:00 +17°C° 0 mm 0 m/s 757 mmHg 55%
    04:00 +17°C° 0 mm 0 m/s 757 mmHg 56%
    05:00 +19°C° 0 mm 1 m/s 757 mmHg 57%
    06:00 +18°C° 0 mm 1 m/s 757 mmHg 58%
    07:00 +20°C° 0 mm 1 m/s 758 mmHg 54%
    08:00 +21°C° 0 mm 1 m/s 758 mmHg 51%
    09:00 +22°C° 0 mm 1 m/s 759 mmHg 47%
    10:00 +24°C° 0 mm 1 m/s 759 mmHg 43%
    11:00 +24°C° 0 mm 0 m/s 758 mmHg 40%
    12:00 +25°C° 0 mm 0 m/s 758 mmHg 36%
    13:00 +25°C° 0 mm 0 m/s 758 mmHg 34%
    14:00 +25°C° 0 mm 0 m/s 757 mmHg 32%
    15:00 +26°C° 0 mm 0 m/s 756 mmHg 30%
    16:00 +26°C° 0 mm 1 m/s 756 mmHg 33%
    17:00 +25°C° 0 mm 1 m/s 756 mmHg 37%
    18:00 +23°C° 0 mm 2 m/s 756 mmHg 40%
    19:00 +23°C° 0 mm 2 m/s 757 mmHg 42%
    20:00 +21°C° 0 mm 2 m/s 757 mmHg 44%
    21:00 +21°C° 0 mm 2 m/s 758 mmHg 45%
    22:00 +20°C° 0 mm 2 m/s 758 mmHg 47%
    23:00 +20°C° 0 mm 2 m/s 758 mmHg 48%

    12 Décembre, Jeudi

    Heure Température Précipitation Vent Pression Humidité
    00:00 +20°C° 0 mm 2 m/s 758 mmHg 49%
    01:00 +19°C° 0 mm 2 m/s 758 mmHg 51%
    02:00 +19°C° 0 mm 2 m/s 758 mmHg 53%
    03:00 +20°C° 0 mm 1 m/s 758 mmHg 56%
    04:00 +19°C° 0 mm 1 m/s 758 mmHg 58%
    05:00 +19°C° 0 mm 1 m/s 758 mmHg 61%
    06:00 +18°C° 0 mm 2 m/s 758 mmHg 63%
    07:00 +19°C° 0 mm 2 m/s 759 mmHg 62%
    08:00 +20°C° 0 mm 2 m/s 760 mmHg 61%
    09:00 +21°C° 0 mm 2 m/s 760 mmHg 60%
    10:00 +23°C° 0 mm 2 m/s 760 mmHg 56%
    11:00 +24°C° 0 mm 2 m/s 760 mmHg 52%
    12:00 +26°C° 0 mm 2 m/s 759 mmHg 47%
    13:00 +26°C° 0 mm 2 m/s 759 mmHg 44%
    14:00 +26°C° 0 mm 2 m/s 758 mmHg 41%
    15:00 +27°C° 0 mm 1 m/s 757 mmHg 38%
    16:00 +25°C° 0 mm 1 m/s 757 mmHg 42%
    17:00 +24°C° 0 mm 1 m/s 757 mmHg 45%
    18:00 +23°C° 0 mm 1 m/s 757 mmHg 49%
    19:00 +22°C° 0 mm 1 m/s 758 mmHg 52%
    20:00 +22°C° 0 mm 1 m/s 758 mmHg 54%
    21:00 +21°C° 0 mm 1 m/s 759 mmHg 57%
    22:00 +21°C° 0 mm 1 m/s 759 mmHg 59%
    23:00 +21°C° 0 mm 1 m/s 759 mmHg 61%
    Voir plus